Showing default

OPS 8464 (TRANSIT 5B-7), 1514

Orbit data source: Space-Track

OPS 8464 (TRANSIT 5B-7), 1514 is a payload satellite owned by USN BuWeps (US) in LEO that was launched on Fri, 13 Aug 1965 UTC via a THOR ABLESTAR launch vehicle from the Air Force Western Test Range (AFWTR). Payloads include a variety of satellites, spacecraft, and rockets equipped with specific instruments for various scientific and technological missions. These include communications satellites like Starlink; space stations such as the ISS; scientific satellites like the Hubble; Earth observation satellites from companies like Planet Labs, Umbra, and HawkEye 360; GPS; miniature CubeSats for education and research; and military/defense satellites.

Loading next visibility...
OPS 8464 (TRANSIT 5B-7) details
Identifier
1514, 1965-065F
Orbit
LEO
Last TLE update18 hours ago
Origin
Flag of USUSN BuWeps (US)
ManufacturerNAFI
MissionDefense Navigation
Bus & MotorTRANSIT 5, Unknown motor
Mass~54 kg wet, ~54 kg dry
Launch date (UTC)
1965-08-13 (59 years ago)
Launch vehicle
THOR ABLESTAR
Launch site
Air Force Western Test Range (AFWTR)
Object type
Payload
Rocket body
Debris
Shape & HBROct Cyl + 4 Pan + 1 Rod, Unknown HBR
Radar Cross Section7.565 m², Large (>1 m²)

Expand to show TLE details & history

TLE from 18 hours ago
0 OPS 8464 (TRANSIT 5B-7)
1 01514U 65065F   24355.89178648  .00000115  00000-0  20835-3 0  9991
2 01514  89.9599 229.0212 0068738 251.1516 119.4883 13.35249473888765
Epoch: 2024-12-20T21:24Z
Definitive object data (Epoch: 2024-12-20T21:24:10.351Z)
Latitude11.27516°
Longitude178.03524°
Altitude1,154.873 km
Speed7.264 km/s
True Right ascension15h 16m 06s
True Declination11° 12' 46"
Sunlit
Object was in daylight at TLE epoch
Visualization TLE readout
Latitude-80.08448°
Longitude177.79618°
Altitude1,110.866 km
Speed7.318 km/s
Apparent Right ascension01h 31m 43s
Apparent Declination-72° 02' 47"
Sunlit
Object is in daylight
Visualization observer readout
Local Sidereal Time13:58:10
Azimuth176.192° S
Elevation-57.701°
Doppler factor1
Orbital elements
Apogee altitude1,175.668 km
Perigee altitude1,072.53 km
Semi-major axis7,502.236 km
Eccentricity0.0068738
Inclination89.9599°
RAAN229.0212°
Arg. of periapsis251.1516°
True anomaly120.17104°
Mean anomaly119.4883°
Eccentric anomaly119.82996°
Mean motion3.34008 °/min
BSTAR0.00020835
Orbital period107.78 mins
Loading maneuver chart data...
Loading historical data...
Loading historical data...
Loading historical data...
Loading historical data...
Loading historical data...
Loading historical data...
Loading historical data...

OPS 8464 (TRANSIT 5B-7) Visibility forecast

Observer location: undefined°, undefined

Span
Click to sort rows by Start time (UTC) header in descending order
Start Az.
Max El. time (UTC)
Max El. Az.
Max El.
End time (UTC)
End Az.
12 mins2024-12-21 15:25:57.807Z148.956° SSE2024-12-21 15:31:57.807Z85.507° E35.807°2024-12-21 15:37:57.807Z12.867° NNE
11 mins2024-12-21 17:14:57.807Z223.465° SW2024-12-21 17:19:57.807Z277.42° WNW27.141°2024-12-21 17:25:57.807Z336.868° NNW
8 mins2024-12-22 02:45:57.807Z42.476° NE2024-12-22 02:48:57.807Z73.96° E21.276°2024-12-22 02:53:57.807Z125.062° SE
12 mins2024-12-22 04:31:57.807Z351.812° N2024-12-22 04:37:57.807Z260.191° W40.394°2024-12-22 04:43:57.807Z200.687° SSW
5 mins2024-12-22 14:50:57.807Z121.221° SE2024-12-22 14:54:57.807Z80.889° E24.213°2024-12-22 14:55:57.807Z67.517° E
|